Stations météo

réclame
Mon MeteoGroup
Ploumanach, France (7117): Température de l'air & dewpoint: 15.06.2018 12:00:00 - 21.06.2018 12:00:00 (CEST)Ploumanach, France (7117): Vitesse du vent & gusts: 15.06.2018 12:00:00 - 21.06.2018 12:00:00 (CEST)Ploumanach, France (7117): Direction du vent: 15.06.2018 12:00:00 - 21.06.2018 12:00:00 (CEST)Ploumanach, France (7117): reduced air pressure: 15.06.2018 12:00:00 - 21.06.2018 12:00:00 (CEST)Ploumanach, France (7117): visibility: 15.06.2018 12:00:00 - 21.06.2018 12:00:00 (CEST)Ploumanach, France (7117): Quantités de précipitations: 15.06.2018 12:00:00 - 21.06.2018 12:00:00 (CEST)
Date & Time tt [°C] td [°C] ff [km/h] ff [knt] fx [km/h] fx [knt] dd ppp [hPa] vv [km] rr [mm]
21.06.2018 12:00:00 15,3 8,5 29 16 38 20 NNE 1027,1 - 0,0
21.06.2018 11:00:00 15,6 9,3 26 14 41 22 NNE 1026,9 25 0,0
21.06.2018 10:00:00 14,8 9,6 29 16 43 23 NNE 1026,8 - 0,0
21.06.2018 09:00:00 14,6 9,8 29 16 44 24 NNE 1026,5 - 0,0
21.06.2018 08:00:00 13,7 9,3 32 18 45 24 NNE 1026,0 25 0,0
21.06.2018 07:00:00 12,8 8,9 25 14 37 20 N 1025,5 - 0,0
21.06.2018 06:00:00 12,5 9,3 22 12 32 17 N 1024,8 - 0,0
21.06.2018 05:00:00 12,4 9,6 21 12 32 17 N 1024,3 - 0,0
21.06.2018 04:00:00 13,6 12,8 13 7 26 14 NNW 1024,2 - 0,0
21.06.2018 03:00:00 14,1 13,9 13 7 22 12 WNW 1023,9 - 0,0
21.06.2018 02:00:00 14,1 14,1 9 5 16 8 W 1023,8 - 0,0
21.06.2018 01:00:00 14,3 14,3 11 6 21 11 W 1023,8 - 0,2
21.06.2018 00:00:00 14,4 14,4 10 5 18 10 WSW 1023,7 - 0,0
20.06.2018 23:00:00 13,8 13,8 10 6 21 11 W 1023,7 - 0,2
20.06.2018 22:00:00 13,5 13,2 9 5 21 11 WSW 1022,8 - 0,0
20.06.2018 21:00:00 13,9 12,1 13 7 19 10 W 1022,6 - 0,0
20.06.2018 20:00:00 16,1 13,2 5 3 11 6 SW 1022,2 1,5 0,0
20.06.2018 19:00:00 15,2 12,5 5 3 14 8 WNW 1022,6 - 0,0
20.06.2018 18:00:00 15,7 12,8 8 4 16 9 NNW 1022,6 - 0,0
20.06.2018 17:00:00 16,7 13,8 8 4 18 10 NNW 1022,8 - 0,0
20.06.2018 16:00:00 16,9 14,0 10 5 18 10 N 1022,8 - 0,0
20.06.2018 15:00:00 16,5 13,4 11 6 20 11 NNW 1023,0 - 0,0
20.06.2018 14:00:00 17,2 14,3 8 5 24 13 WNW 1023,0 0,5 0,0
20.06.2018 13:00:00 17,5 14,6 6 4 10 5 NNE 1023,1 - 0,0
20.06.2018 12:00:00 15,4 14,4 4 2 9 5 ENE 1023,2 - 0,0
20.06.2018 11:00:00 15,5 14,9 8 5 12 6 N 1023,3 0,1 0,0
20.06.2018 10:00:00 15,1 14,9 6 4 9 5 NNE 1023,4 - 0,0
20.06.2018 09:00:00 14,6 14,6 4 2 9 5 E 1023,4 - 0,0
20.06.2018 08:00:00 14,2 14,2 0 0 7 4 N 1023,3 0,2 0,0
20.06.2018 07:00:00 14,0 14,0 4 2 11 6 E 1023,1 - 0,0
20.06.2018 06:00:00 14,4 14,4 0 0 4 2 N 1023,0 - 0,0
20.06.2018 05:00:00 14,2 14,2 2 1 4 2 NNE 1023,4 - 0,0
20.06.2018 04:00:00 14,1 14,1 3 1 5 3 ENE 1023,5 - 0,0
20.06.2018 03:00:00 14,2 14,0 2 1 4 2 NE 1023,7 - 0,2
20.06.2018 02:00:00 14,2 13,9 0 0 7 4 N 1024,3 - 0,0
20.06.2018 01:00:00 14,4 13,8 5 3 10 5 N 1024,7 - 0,0
20.06.2018 00:00:00 14,9 14,4 2 1 6 3 NNE 1024,9 - 0,2
19.06.2018 23:00:00 15,0 14,0 0 0 6 3 N 1024,9 - 0,0
19.06.2018 22:00:00 15,3 13,5 3 1 5 3 NE 1024,6 - 0,0
19.06.2018 21:00:00 15,6 13,6 3 2 9 5 ENE 1024,9 - 0,0
19.06.2018 20:00:00 16,7 13,8 3 2 14 8 N 1025,1 16 0,0
19.06.2018 19:00:00 18,5 14,2 11 6 19 10 WNW 1025,3 - 0,0
19.06.2018 18:00:00 19,9 14,9 9 5 19 10 NW 1025,6 - 0,0
19.06.2018 17:00:00 20,1 15,1 9 5 18 10 WNW 1025,9 16 0,0
19.06.2018 16:00:00 19,3 15,0 14 7 20 11 W 1026,1 - 0,0
19.06.2018 15:00:00 18,9 15,0 12 7 18 10 W 1026,2 - 0,0
19.06.2018 14:00:00 19,1 14,8 11 6 17 9 WNW 1026,5 16 0,0
19.06.2018 13:00:00 18,7 15,4 11 6 18 10 WNW 1026,6 - 0,0
19.06.2018 12:00:00 17,8 15,2 9 5 19 11 W 1026,6 - 0,0
19.06.2018 11:00:00 17,2 15,2 11 6 18 10 W 1026,7 - 0,0
19.06.2018 10:00:00 17,0 15,9 7 4 14 8 WSW 1026,8 - 0,0
19.06.2018 09:00:00 16,1 15,5 8 4 18 10 SW 1026,7 - 0,0
19.06.2018 08:00:00 15,8 15,6 11 6 21 11 SW 1026,5 16 0,0
19.06.2018 07:00:00 15,5 15,5 11 6 23 12 SW 1026,2 - 0,0
19.06.2018 06:00:00 15,2 15,2 16 9 27 15 WSW 1026,1 - 0,2
19.06.2018 05:00:00 15,2 15,2 15 8 31 17 WSW 1025,8 - 0,0
19.06.2018 04:00:00 15,2 15,2 16 9 29 16 WSW 1025,8 - 0,0
19.06.2018 03:00:00 15,2 15,2 17 9 28 15 WSW 1026,1 - 0,2
19.06.2018 02:00:00 15,1 15,1 16 9 26 14 WSW 1026,2 - 0,0
19.06.2018 01:00:00 14,7 14,7 17 9 31 17 WSW 1026,4 - 0,2
19.06.2018 00:00:00 14,7 14,7 20 11 36 19 WSW 1026,4 - 0,0
18.06.2018 23:00:00 14,9 14,9 18 10 35 19 WSW 1026,3 - 0,2
18.06.2018 22:00:00 15,1 14,5 22 12 39 21 WSW 1025,9 - 0,0
18.06.2018 21:00:00 15,9 14,3 21 12 40 21 WSW 1025,6 - 0,0
18.06.2018 20:00:00 16,4 14,1 21 12 38 21 W 1025,2 15 0,0
18.06.2018 19:00:00 17,2 13,9 18 10 32 18 WSW 1025,0 - 0,0
18.06.2018 18:00:00 17,5 14,0 18 10 31 17 WSW 1025,0 - 0,0
18.06.2018 17:00:00 18,1 14,4 19 11 36 20 W 1025,2 - 0,0
18.06.2018 16:00:00 20,0 14,4 19 10 37 20 W 1024,9 - 0,0
18.06.2018 15:00:00 19,3 13,7 21 11 34 18 WSW 1024,9 - 0,0
18.06.2018 14:00:00 18,5 14,0 18 10 31 17 WSW 1025,0 15 0,0
18.06.2018 13:00:00 16,7 12,6 22 12 39 21 W 1025,1 - 0,0
18.06.2018 12:00:00 16,2 12,2 20 11 41 22 W 1024,7 - 0,0
18.06.2018 11:00:00 15,6 12,2 23 12 39 21 W 1024,4 12 0,0
18.06.2018 10:00:00 14,7 12,9 22 12 35 19 W 1024,0 - 0,0
18.06.2018 09:00:00 14,4 13,8 20 11 40 22 W 1023,3 - 0,0
18.06.2018 08:00:00 13,9 13,6 19 10 31 17 WSW 1022,7 6 0,0
18.06.2018 07:00:00 13,8 13,3 16 9 35 19 WSW 1022,4 - 0,2
18.06.2018 06:00:00 13,8 13,5 22 12 36 19 WSW 1022,0 - 0,0
18.06.2018 05:00:00 13,7 13,4 16 9 31 17 WSW 1021,8 - 0,0
18.06.2018 04:00:00 13,8 13,5 17 9 29 16 WSW 1021,6 - 0,0
18.06.2018 03:00:00 13,9 13,6 15 8 30 16 W 1021,6 - 0,4
18.06.2018 02:00:00 14,9 14,4 17 9 31 17 WSW 1021,5 - 0,0
18.06.2018 01:00:00 14,7 14,2 18 10 34 19 WSW 1021,2 - 0,0
18.06.2018 00:00:00 14,7 14,5 21 12 40 21 WSW 1021,3 - 0,0
17.06.2018 23:00:00 14,9 14,9 25 14 44 24 WSW 1020,7 - 0,2
17.06.2018 22:00:00 15,4 15,4 24 13 40 22 WSW 1020,2 - 0,2
17.06.2018 21:00:00 15,8 15,5 17 9 32 18 WSW 1020,2 - 0,4
17.06.2018 20:00:00 16,1 15,6 22 12 42 23 WSW 1019,8 - 0,0
17.06.2018 19:00:00 16,5 14,9 24 13 44 24 WSW 1019,3 - 0,0
17.06.2018 18:00:00 17,2 14,3 24 13 41 22 SW 1019,4 - 0,0
17.06.2018 17:00:00 17,4 13,7 21 12 48 26 SW 1019,5 18 0,0
17.06.2018 16:00:00 17,7 13,0 25 13 52 28 SSW 1019,2 - 0,0
17.06.2018 15:00:00 16,9 12,8 30 16 49 27 SW 1019,4 - 0,0
17.06.2018 14:00:00 18,1 12,3 29 16 48 26 SW 1019,5 18 0,0
17.06.2018 13:00:00 17,0 11,7 23 13 41 22 SW 1019,9 - 0,0
17.06.2018 12:00:00 15,5 11,9 21 11 44 24 SW 1020,0 - 0,2
17.06.2018 11:00:00 16,1 10,2 21 11 36 19 SW 1020,0 20 0,0
17.06.2018 10:00:00 15,5 10,3 22 12 37 20 SW 1020,2 - 0,0
17.06.2018 09:00:00 14,4 10,2 15 8 29 15 SW 1020,0 - 0,0
17.06.2018 08:00:00 13,6 10,0 16 9 29 16 SW 1020,0 20 0,0
17.06.2018 07:00:00 13,4 9,4 17 9 28 15 SW 1019,6 - 0,0
17.06.2018 06:00:00 13,3 9,5 16 8 27 14 WSW 1019,5 - 0,0
17.06.2018 05:00:00 13,3 9,9 16 9 32 17 WSW 1019,5 - 0,0
17.06.2018 04:00:00 13,5 10,1 17 9 32 17 WSW 1019,8 - 0,0
17.06.2018 03:00:00 13,5 10,3 16 9 30 16 WSW 1019,9 - 0,0
17.06.2018 02:00:00 13,6 10,2 18 10 31 17 WSW 1019,9 - 0,0
17.06.2018 01:00:00 13,7 9,7 17 9 29 15 WSW 1019,9 - 0,0
17.06.2018 00:00:00 13,6 10,2 19 10 32 17 WSW 1020,3 - 0,0
16.06.2018 23:00:00 13,6 9,8 17 9 31 17 WSW 1019,6 - 0,0
16.06.2018 22:00:00 13,7 10,1 18 10 29 16 WSW 1019,4 - 0,0
16.06.2018 21:00:00 14,1 9,9 19 10 37 20 W 1019,2 - 0,0
16.06.2018 20:00:00 14,8 10,0 24 13 42 23 W 1018,7 18 0,0
16.06.2018 19:00:00 15,2 11,2 21 11 37 20 WSW 1018,5 - 0,0
16.06.2018 18:00:00 15,2 11,4 22 12 39 21 W 1018,2 - 0,0
16.06.2018 17:00:00 15,0 11,9 19 10 36 19 WSW 1018,1 10 0,0
16.06.2018 16:00:00 14,7 13,7 16 8 40 22 WSW 1017,5 - 1,0
16.06.2018 15:00:00 16,2 12,6 24 13 48 26 SW 1017,1 - 0,0
16.06.2018 14:00:00 16,7 13,0 23 13 41 22 WSW 1017,1 7 0,0
16.06.2018 13:00:00 17,1 11,8 20 11 45 24 WSW 1017,2 - 0,0
16.06.2018 12:00:00 17,4 11,7 22 12 37 20 SW 1016,8 - 0,0
16.06.2018 11:00:00 14,9 12,6 15 8 27 15 SW 1017,3 10 0,0
16.06.2018 10:00:00 14,0 11,3 19 10 42 23 SW 1017,5 - 0,0
16.06.2018 09:00:00 14,0 10,2 16 9 29 15 SSW 1017,2 - 0,0
16.06.2018 08:00:00 12,6 10,1 14 8 24 13 SSW 1017,1 20 0,0
16.06.2018 07:00:00 12,4 9,8 13 7 22 12 SSW 1016,9 - 0,0
16.06.2018 06:00:00 12,0 9,7 13 7 19 11 SSW 1017,0 - 0,0
16.06.2018 05:00:00 12,1 9,7 11 6 18 10 SSW 1017,3 - 0,0
16.06.2018 04:00:00 12,2 9,6 11 6 19 10 SSW 1017,9 - 0,0
16.06.2018 03:00:00 11,9 9,6 9 5 16 8 SW 1018,4 - 0,0
16.06.2018 02:00:00 12,3 10,2 10 5 15 8 S 1017,9 - 0,0
16.06.2018 01:00:00 12,1 10,2 10 5 14 7 SW 1018,5 - 0,0
16.06.2018 00:00:00 12,2 10,1 8 5 14 8 SW 1019,0 - 0,0
15.06.2018 23:00:00 12,4 10,1 9 5 17 9 SW 1019,1 - 0,0
15.06.2018 22:00:00 13,6 9,8 8 5 16 8 W 1019,2 - 0,0
15.06.2018 21:00:00 15,5 10,5 12 6 24 13 W 1019,3 - 0,0
15.06.2018 20:00:00 16,1 10,4 14 7 24 13 W 1019,3 - 0,0
15.06.2018 19:00:00 16,4 10,3 10 5 24 13 W 1019,1 - 0,0
15.06.2018 18:00:00 17,2 9,4 13 7 27 14 W 1019,8 - 0,0
15.06.2018 17:00:00 17,4 8,8 18 10 26 14 W 1020,1 18 0,0
15.06.2018 16:00:00 17,9 8,2 16 8 26 14 W 1020,3 - 0,0
15.06.2018 15:00:00 17,4 9,6 18 10 26 14 W 1020,1 - 0,0
15.06.2018 14:00:00 17,1 9,8 14 7 24 13 W 1020,2 20 0,0
15.06.2018 13:00:00 16,7 10,5 14 8 23 12 WNW 1020,1 - 0,0
15.06.2018 12:00:00 16,6 9,8 12 6 19 10 W 1019,9 - 0,0

tt = Température de l'air
td = dewpoint
ff = Vitesse du vent
fx = gusts
dd = Direction du vent
ppp = reduced air pressure
vv = visibility
rr = Quantités de précipitations

stations d'obs. à proximité